Time,TemperatureF,DewpointF,PressureIn,WindDirection,WindDirectionDegrees,WindSpeedMPH,WindSpeedGustMPH,Humidity,HourlyPrecipIn,Conditions,Clouds,dailyrainin,SolarRadiationWatts/m^2,SoftwareType,DateUTC
2013-12-19 00:21:00,43.0,36.0,-100.00,WSW,245,7.0,11.0,78,0.00,,,-99.99,0.000000,,2013-12-19 07:21:00,
2013-12-19 00:32:00,43.0,36.0,-100.00,WSW,245,7.0,11.0,78,0.00,,,-99.99,0.000000,,2013-12-19 07:32:00,
2013-12-19 00:42:00,43.0,36.0,-100.00,WSW,245,7.0,11.0,78,0.00,,,-99.99,0.000000,,2013-12-19 07:42:00,
2013-12-19 04:50:00,38.0,36.0,-100.00,SW,224,3.0,4.0,95,0.02,,,-99.99,0.000000,,2013-12-19 11:50:00,
2013-12-19 05:21:00,38.0,36.0,-100.00,SW,224,3.0,4.0,95,0.02,,,-99.99,0.000000,,2013-12-19 12:21:00,
2013-12-19 05:32:00,38.0,36.0,-100.00,SW,224,3.0,4.0,95,0.02,,,-99.99,0.000000,,2013-12-19 12:32:00,
2013-12-19 05:42:00,38.0,36.0,-100.00,SW,224,3.0,4.0,95,0.02,,,-99.99,0.000000,,2013-12-19 12:42:00,
2013-12-19 08:54:00,36.0,36.0,-100.00,SSW,200,3.0,5.0,97,0.01,,,-99.99,73.000000,,2013-12-19 15:54:00,
2013-12-19 09:50:00,34.0,32.0,-100.00,NW,307,4.0,6.0,93,0.01,,,-99.99,169.000000,,2013-12-19 16:50:00,
2013-12-19 10:22:00,34.0,32.0,-100.00,NW,307,4.0,6.0,93,0.01,,,-99.99,169.000000,,2013-12-19 17:22:00,
2013-12-19 10:33:00,34.0,32.0,-100.00,NW,307,4.0,6.0,93,0.01,,,-99.99,169.000000,,2013-12-19 17:33:00,
2013-12-19 10:42:00,34.0,32.0,-100.00,NW,307,4.0,6.0,93,0.01,,,-99.99,169.000000,,2013-12-19 17:42:00,
2013-12-19 14:50:00,31.0,30.0,-100.00,ENE,71,4.0,9.0,94,0.00,,,-99.99,31.000000,,2013-12-19 21:50:00,
2013-12-19 15:23:00,31.0,30.0,-100.00,ENE,71,4.0,9.0,94,0.00,,,-99.99,31.000000,,2013-12-19 22:23:00,
2013-12-19 15:33:00,31.0,30.0,-100.00,ENE,71,4.0,9.0,94,0.00,,,-99.99,31.000000,,2013-12-19 22:33:00,
2013-12-19 15:42:00,31.0,30.0,-100.00,ENE,71,4.0,9.0,94,0.00,,,-99.99,31.000000,,2013-12-19 22:42:00,
2013-12-19 17:21:00,30.0,29.0,-100.00,SSW,198,2.0,3.0,94,0.00,,,-99.99,1.000000,,2013-12-20 00:21:00,
2013-12-19 19:50:00,29.0,28.0,-100.00,NW,324,3.0,4.0,95,0.00,,,-99.99,0.000000,,2013-12-20 02:50:00,
2013-12-19 20:21:00,29.0,28.0,-100.00,NW,324,3.0,4.0,95,0.00,,,-99.99,0.000000,,2013-12-20 03:21:00,
2013-12-19 20:33:00,29.0,28.0,-100.00,NW,324,3.0,4.0,95,0.00,,,-99.99,0.000000,,2013-12-20 03:33:00,
2013-12-19 20:43:00,29.0,28.0,-100.00,NW,324,3.0,4.0,95,0.00,,,-99.99,0.000000,,2013-12-20 03:43:00,